This is the latest recevied weather packets stored in our database for station/object VA3BOO. If no packets are shown the sender has not sent any weather packets the latest 10 day(s).
| Time | Temp. | Humidity | Pressure | Rain* | Wind** | Luminosity | Snow |
|---|---|---|---|---|---|---|---|
| 1777908303 | 14.44° C | 56% | 1005.5 hPa | 0 mm | - | 719 W/m² | - |
| 1777908004 | 13.89° C | 55% | 1005.4 hPa | 0 mm | - | 709 W/m² | - |
| 1777907704 | 13.89° C | 58% | 1005.5 hPa | 0 mm | - | 699 W/m² | - |
| 1777907403 | 13.33° C | 57% | 1005.6 hPa | 0 mm | - | 689 W/m² | - |
| 1777907104 | 13.33° C | 59% | 1005.7 hPa | 0 mm | - | 679 W/m² | - |
| 1777906804 | 13.33° C | 59% | 1005.5 hPa | 0 mm | - | 669 W/m² | - |
| 1777906503 | 13.33° C | 61% | 1005.6 hPa | 0 mm | - | 654 W/m² | - |
| 1777906204 | 13.33° C | 61% | 1005.7 hPa | 0 mm | - | 316 W/m² | - |
| 1777905904 | 13.33° C | 61% | 1005.6 hPa | 0 mm | - | 93 W/m² | - |
| 1777905604 | 12.78° C | 62% | 1005.4 hPa | 0 mm | - | 102 W/m² | - |
| 1777905304 | 13.33° C | 60% | 1005.4 hPa | 0 mm | - | 152 W/m² | - |
| 1777905004 | 13.33° C | 62% | 1005.6 hPa | 0 mm | - | 532 W/m² | - |
| 1777904703 | 12.78° C | 63% | 1005.6 hPa | 0 mm | - | 540 W/m² | - |
| 1777904404 | 12.78° C | 62% | 1005.6 hPa | 0 mm | - | 548 W/m² | - |
| 1777904104 | 12.78° C | 64% | 1005.7 hPa | 0 mm | - | 546 W/m² | - |
| 1777903804 | 12.22° C | 65% | 1005.7 hPa | 0 mm | - | 544 W/m² | - |
| 1777903504 | 11.67° C | 68% | 1005.6 hPa | 0 mm | - | 520 W/m² | - |
| 1777903204 | 11.67° C | 67% | 1005.5 hPa | 0 mm | - | 527 W/m² | - |
| 1777902904 | 12.22° C | 66% | 1005.5 hPa | 0 mm | - | 501 W/m² | - |
| 1777902603 | 12.22° C | 66% | 1005.7 hPa | 0 mm | - | 481 W/m² | - |
| 1777902304 | 12.22° C | 68% | 1005.7 hPa | 0 mm | - | 431 W/m² | - |
| 1777902003 | 11.67° C | 69% | 1005.7 hPa | 0 mm | - | 423 W/m² | - |
| 1777901703 | 11.67° C | 69% | 1005.7 hPa | 0 mm | - | 359 W/m² | - |
| 1777901403 | 11.11° C | 71% | 1005.7 hPa | 0 mm | - | 388 W/m² | - |
| 1777901104 | 11.11° C | 72% | 1005.7 hPa | 0 mm | - | 344 W/m² | - |
* Rain latest hour (hover to see other rain measurements)
** Current wind speed in m/s (hover to see current wind gust speed)